Погода в Верхнедвинске

Погода в Верхнедвинске : погода сейчас, прогноз погоды и архив. Всё, что Вы хотите узнать о погоде в Верхнедвинске!

Хотите узнать прогноз погоды в Верхнедвинске? Тогда Вам сюда: Погода в Верхнедвинске

Поиск расширенной информации на нашем сайте:

Другие новости

Новости СМИ2

Главная страница сайта

Новости сайта

03.07.2017

Напоминаем, что на нашем специализированном сайте Метеоцентр.Азия вы можете получить высокодетализированные автоматические прогнозы погоды по пунктам России, СНГ и мира в авиационном формате (включающие направление и скорость ветра, видимость, явления погоды, количество и форму облачности, нижнюю и верхнюю границу облачности).


Погода в Верхнедвинске - сегодня

Время (UTC), дата Ветер
(°,м/с) 
Видим.   Явления Облачность Т
(°С)
Тd
(°С)
f(%) Тe
(°С)
Pmin
(гПа)
dP
(гПа)
Po
(мм)
O2
(г/м3)
Тmin Tmax R s Состояние
почвы
03 16.06.18 050 (СВ) 10 км  слаб. дождь  10/0 средняя 
[As op]
+14.4 +11.5 83 +19  1017.3  0.5  751  285      0.0     
06 16.06.18 060 (СВ) 12000 м  в посл. час дождь  10/0 средняя 
[As op]
+13.9 +11.9 88 +18  1017.6  0.3  751  286  +13.6    0.4     
12 16.06.18 070 (В) 14000 м  {ливн. осадки}  10/8 600 м средняя 
[Sc|As op]
+14.1 +11.7 85 +17  1017.8  0.2  752  286           
18 16.06.18 тихо ()   11000 м  {дождь}  9/9 210 м средняя 
[St|Ac trans]
+13.6 +12.8 95 +19  1016.8  -0.8  751  286    +14.7     
03 17.06.18 270 (З) 6000 м  дымка{морось}  10/10 210 м 
[St]
+13.1 +12.3 95 +18  1016.6  751  286      0.0     
06 17.06.18 230 (ЮЗ) 9000 м  дымка{морось}  10/10 210 м 
[St]
+13.8 +12.7 93 +19  1016.7  0.1  751  285  +12.8    0.0     
09 17.06.18 270 (З) 10 км    9/9 480 м 
[St]
+15.8 +12.3 80 +21  1016.9  0.3  751  284           
15 17.06.18 120 (ЮВ) 14000 м    9/6 600 м средняя, верхняя 
[Sc|Ac trans|Ci fib]
+17.7 +13.5 76 +25  1016.3  -0.6  751  281           
18 17.06.18 120 (ЮВ) 15000 м    4/1 600 м средняя, верхняя 
[Sc|Ac trans|Ci fib]
+17.1 +14.2 83 +26  1016  -0.3  750  282    +19.1       
21 17.06.18 тихо ()   4500 м  дымка  1/0 верхняя 
[Ci fib]
+12.8 +12.3 97 +17  1016.5  0.2  750  286           
00 18.06.18 тихо ()   0200 м  туман  ясно 
+10.8 +10.8 100 +13  1016.3  -0.3  750  289           
03 18.06.18 100 (В) 0700 м  туман  ясно 
+10.7 +10.7 100 +14  1016  -0.3  750  289           
06 18.06.18 тихо ()   12000 м  {туман}  3/0 средняя 
[Ac trans]
+19.4 +14.9 75 +28  1015.4  750  279  +9.6         
09 18.06.18 360 (С) 15000 м    3/3 600 м 
[Cu med, cong]
+24.3 +13.8 52 +31  1015.1  750  275           
12 18.06.18 330 (СЗ) 20000 м    3/3 600 м 
[Cu med, cong]
+27.6 +9.5 32 +28  1014.5  -0.4  750  273           
15 18.06.18 тихо ()   20000 м    3/1 600 м верхняя 
[Cu hum|Ci fib]
+28.6 +8.4 28 +29  1013.5  -0.9  749  272           
18 18.06.18 тихо ()   18000 м    4/3 600 м средняя 
[Sc|Ac trans]
+24 +11.6 46 +27  1013.6  -0.2  749  275    +29.8       
21 18.06.18 310 (СЗ) 12000 м    9/0 средняя 
[Ac trans]
+20.2 +14.2 68 +28  1014.7  0.8  749  278           
00 19.06.18 280 (З) 10 км    3/0 средняя 
[Ac trans]
+16.5 +14.4 87 +25  1015.9  750  282           
03 19.06.18 тихо ()   10 км    6/0 средняя 
[Ac trans]
+14.2 +12.8 91 +19  1016.1  750  285           
06 19.06.18 230 (ЮЗ) 15000 м    4/0 средняя 
[Ac trans]
+17.2 +11.2 68 +21  1016.3  0.4  751  282  +14.1         
09 19.06.18 250 (З) 15000 м    3/0 средняя 
[Ac trans]
+21.8 +10.6 49 +24  1015.1  -0.9  750  278           
15 19.06.18 240 (ЮЗ) 5-10{13}  15000 м    9/3 600 м кучево-дожд., средняя 
[Cb cap|Ac trans]
+22.8 +10.4 45 +25  1011.5  -1.6  747  276           
00 20.06.18 250 (З) 15000 м  {ливн. осадки}  ясно 
+14.2 +9.8 75 +15  1014.3  0.7  749  285           
06 20.06.18 270 (З) 5{10}  15000 м    6/6 600 м 
[Sc]
+16.6 +11.7 73 +20  1014.4  0.2  749  282  +12.6    0.0     
Время (UTC), дата Ветер
(°,м/с) 
Видим.   Явления Облачность Т
(°С)
Тd
(°С)
f(%) Тe
(°С)
Pmin
(гПа)
dP
(гПа)
Po
(мм)
O2
(г/м3)
Тmin Tmax R s Состояние
почвы

Для получения пояснительной информации подведите курсор к названию столбца.

ПОГОДА в Верхнедвинске - архив

Всё, что Вы хотите узнать о погоде в Верхнедвинске - удобно и подробно!

Выберите нужную дату (начиная с 1 января 2015* года) и нажмите кнопку "Найти".
Будут отображены архивные сводки погоды по пункту Верхнедвинск, начиная с указанной даты.


Отображать данные в формате CSV (для использования в таблицах Excel)


Внимание! Наш архив погоды предназначен исключительно для личного некоммерческого использования в познавательных целях. Если Вам необходимы официальные справки о состоянии погоды (для производственных, юридических, коммерческих и т.п. целей), обращайтесь в органы Росгидромета.

*Примечание: данная дата относится к архиву по метеостанциям СССР (Россия, СНГ, Балтия).
Архив по метеостанциям Зарубежной Европы и Азии (кроме Китая) хранится 10 дней, по другим регионам земного шара (Китай, Африка, Америка, Австралия, Океания) - 1 день.

Верхнедвинск - район местоположения метеостанции


Название, широта, долгота, высота метеостанции:
Верхнедвинск 55.8°ш. 27.9°д. 132 м над ур. моря [Беларусь]

Дополнительная информация

В oтличие oт бoльшинства пoгoдных сайтoв мы публикуем пoдрoбную метеoинфoрмацию в детальнoм прoфессиoнальнoм фoрмате.

Характеристики температуры и влажнoсти вoздуха измеряются на высoте 2 м в тени вдали oт зданий и деревьев.
Скoрoсть ветра измеряется на высoте 10 м (на урoвне рoста челoвека скoрoсть ветра ниже в 1.5-2 раза). Если метеoстанция нахoдится в гoрoде или в лесу, тo скoрoсть ветра занижена на 2-4 м/с пo сравнению с oткрытым местoм. Скoрoсть ветра над акватoриями крупных рек и oзёр, а также на вершинах хoлмoв на 2-5 м/с выше, чем в oбычных услoвиях.
Атмoсфернoе давление в разных тoчках местнoсти мoжет значительнo oтличаться oт давления на метеoстанции, в зависимoсти oт услoвий рельефа (при пoдъёме на 10 м давление пoнижается примернo на 1 мм рт.ст.).